When you browse on this site, cookies collect data to enhance your experience and personalize the content and advertising you see.
Visit our Privacy Policy to learn more. By continuing to use the site, you agree to this use of cookies and data.
  • In Romania
  • List of Countries
  • For 7 days
  • Water Temperature
  • Satellite Maps
  • Weather Map
  • Weather Widgets
  • user-avatar
    Login

    Hourly Weather Passo Fundo

    Today, 10 December, Monday

    Time Temperature Precipitation Wind Pressure Humidity
    00:00 +18°C° 0 mm 2 mps 707 mmHg 61%
    01:00 +17°C° 0 mm 2 mps 707 mmHg 65%
    02:00 +16°C° 0 mm 3 mps 707 mmHg 70%
    03:00 +16°C° 0 mm 3 mps 708 mmHg 75%
    04:00 +16°C° 0 mm 3 mps 708 mmHg 78%
    05:00 +16°C° 0 mm 3 mps 708 mmHg 81%
    06:00 +16°C° 0 mm 3 mps 708 mmHg 84%
    07:00 +18°C° 0 mm 3 mps 708 mmHg 76%
    08:00 +21°C° 0 mm 3 mps 709 mmHg 67%
    09:00 +25°C° 0 mm 3 mps 710 mmHg 58%
    10:00 +27°C° 0 mm 3 mps 709 mmHg 52%
    11:00 +28°C° 0 mm 3 mps 709 mmHg 46%
    12:00 +30°C° 0 mm 2 mps 709 mmHg 40%
    13:00 +31°C° 0 mm 2 mps 709 mmHg 39%
    14:00 +31°C° 0 mm 1 mps 709 mmHg 37%
    15:00 +32°C° 0 mm 1 mps 708 mmHg 36%
    16:00 +31°C° 0 mm 1 mps 708 mmHg 40%
    17:00 +31°C° 0 mm 1 mps 708 mmHg 43%
    18:00 +28°C° 0 mm 0 mps 707 mmHg 47%
    19:00 +28°C° 0 mm 1 mps 707 mmHg 50%
    20:00 +26°C° 0 mm 1 mps 707 mmHg 53%
    21:00 +24°C° 0 mm 1 mps 707 mmHg 56%
    22:00 +23°C° 0 mm 1 mps 707 mmHg 59%
    23:00 +22°C° 0 mm 1 mps 708 mmHg 62%

    Tomorrow, 11 December, Tuesday

    Time Temperature Precipitation Wind Pressure Humidity
    00:00 +21°C° 0 mm 2 mps 708 mmHg 65%
    01:00 +20°C° 0 mm 2 mps 707 mmHg 67%
    02:00 +20°C° 0 mm 2 mps 707 mmHg 69%
    03:00 +19°C° 0 mm 2 mps 707 mmHg 71%
    04:00 +19°C° 0 mm 2 mps 707 mmHg 75%
    05:00 +19°C° 0 mm 2 mps 707 mmHg 78%
    06:00 +19°C° 0 mm 2 mps 707 mmHg 82%
    07:00 +21°C° 0 mm 2 mps 708 mmHg 75%
    08:00 +25°C° 0 mm 2 mps 709 mmHg 68%
    09:00 +28°C° 0 mm 3 mps 709 mmHg 61%
    10:00 +29°C° 0 mm 3 mps 709 mmHg 54%
    11:00 +31°C° 0 mm 3 mps 709 mmHg 47%
    12:00 +34°C° 0 mm 3 mps 709 mmHg 40%
    13:00 +34°C° 0 mm 3 mps 709 mmHg 39%
    14:00 +34°C° 0 mm 2 mps 708 mmHg 38%
    15:00 +34°C° 0 mm 2 mps 708 mmHg 38%
    16:00 +34°C° 0 mm 2 mps 707 mmHg 41%
    17:00 +33°C° 0 mm 1 mps 707 mmHg 45%
    18:00 +32°C° 0 mm 1 mps 706 mmHg 48%
    19:00 +30°C° 0 mm 1 mps 706 mmHg 52%
    20:00 +28°C° 0 mm 2 mps 706 mmHg 56%
    21:00 +26°C° 0 mm 2 mps 706 mmHg 60%
    22:00 +25°C° 0 mm 2 mps 706 mmHg 62%
    23:00 +25°C° 0 mm 2 mps 706 mmHg 64%

    Day after tomorrow, 12 December, Wednesday

    Time Temperature Precipitation Wind Pressure Humidity
    00:00 +24°C° 0 mm 2 mps 706 mmHg 66%
    01:00 +24°C° 0 mm 2 mps 706 mmHg 68%
    02:00 +22°C° 0 mm 3 mps 705 mmHg 69%
    03:00 +22°C° 0 mm 3 mps 705 mmHg 70%
    04:00 +22°C° 0 mm 3 mps 706 mmHg 73%
    05:00 +21°C° 0 mm 3 mps 706 mmHg 75%
    06:00 +21°C° 0 mm 3 mps 707 mmHg 78%
    07:00 +24°C° 0 mm 3 mps 707 mmHg 73%
    08:00 +25°C° 0 mm 4 mps 708 mmHg 69%
    09:00 +27°C° 0 mm 4 mps 708 mmHg 64%
    10:00 +28°C° 0 mm 4 mps 708 mmHg 60%
    11:00 +30°C° 0 mm 4 mps 708 mmHg 56%
    12:00 +32°C° 0 mm 5 mps 708 mmHg 52%
    13:00 +32°C° 0 mm 4 mps 708 mmHg 50%
    14:00 +33°C° 0 mm 4 mps 707 mmHg 48%
    15:00 +34°C° 0 mm 4 mps 707 mmHg 47%
    16:00 +33°C° 0 mm 3 mps 706 mmHg 51%
    17:00 +31°C° 0 mm 2 mps 706 mmHg 56%
    18:00 +30°C° 0 mm 2 mps 706 mmHg 61%
    19:00 +28°C° 0.1 mm 2 mps 706 mmHg 67%
    20:00 +27°C° 0.1 mm 2 mps 706 mmHg 73%
    21:00 +25°C° 0.1 mm 2 mps 706 mmHg 79%
    22:00 +24°C° 0 mm 2 mps 706 mmHg 80%
    23:00 +24°C° 0 mm 2 mps 706 mmHg 81%

    13 December, Thursday

    Time Temperature Precipitation Wind Pressure Humidity
    00:00 +23°C° 0 mm 2 mps 706 mmHg 83%
    01:00 +23°C° 0 mm 2 mps 705 mmHg 84%
    02:00 +23°C° 0 mm 2 mps 705 mmHg 85%
    03:00 +21°C° 0 mm 2 mps 705 mmHg 87%
    04:00 +21°C° 0 mm 2 mps 705 mmHg 86%
    05:00 +21°C° 0 mm 2 mps 705 mmHg 86%
    06:00 +21°C° 0 mm 2 mps 705 mmHg 86%
    07:00 +25°C° 0 mm 3 mps 706 mmHg 78%
    08:00 +27°C° 0 mm 3 mps 706 mmHg 69%
    09:00 +29°C° 0 mm 3 mps 707 mmHg 61%
    10:00 +31°C° 0 mm 3 mps 707 mmHg 55%
    11:00 +33°C° 0 mm 3 mps 706 mmHg 49%
    12:00 +35°C° 0 mm 3 mps 706 mmHg 43%
    13:00 +35°C° 0 mm 2 mps 706 mmHg 43%
    14:00 +35°C° 0 mm 2 mps 705 mmHg 42%
    15:00 +34°C° 0 mm 1 mps 705 mmHg 42%
    16:00 +32°C° 0 mm 2 mps 704 mmHg 48%
    17:00 +31°C° 0 mm 2 mps 704 mmHg 53%
    18:00 +30°C° 0 mm 2 mps 704 mmHg 59%
    19:00 +29°C° 0 mm 3 mps 704 mmHg 63%
    20:00 +27°C° 0 mm 3 mps 704 mmHg 67%
    21:00 +26°C° 0 mm 4 mps 704 mmHg 71%
    22:00 +25°C° 0 mm 4 mps 704 mmHg 72%
    23:00 +25°C° 0 mm 4 mps 704 mmHg 72%

    14 December, Friday

    Time Temperature Precipitation Wind Pressure Humidity
    00:00 +23°C° 0 mm 4 mps 704 mmHg 73%
    01:00 +23°C° 0 mm 4 mps 703 mmHg 73%
    02:00 +23°C° 0 mm 4 mps 703 mmHg 74%
    03:00 +23°C° 0 mm 4 mps 703 mmHg 74%
    04:00 +22°C° 0 mm 4 mps 703 mmHg 76%
    05:00 +22°C° 0 mm 3 mps 703 mmHg 77%
    06:00 +22°C° 0 mm 3 mps 703 mmHg 78%
    07:00 +25°C° 0 mm 4 mps 704 mmHg 72%
    08:00 +27°C° 0 mm 5 mps 705 mmHg 65%
    09:00 +29°C° 0 mm 6 mps 706 mmHg 59%
    10:00 +30°C° 0 mm 6 mps 706 mmHg 54%
    11:00 +32°C° 0 mm 6 mps 706 mmHg 49%
    12:00 +34°C° 0 mm 6 mps 706 mmHg 44%
    13:00 +34°C° 0 mm 5 mps 706 mmHg 43%
    14:00 +35°C° 0 mm 4 mps 705 mmHg 41%
    15:00 +35°C° 0 mm 4 mps 705 mmHg 40%
    16:00 +34°C° 0 mm 3 mps 705 mmHg 44%
    17:00 +34°C° 0 mm 3 mps 705 mmHg 49%
    18:00 +32°C° 0 mm 2 mps 705 mmHg 53%
    19:00 +30°C° 0 mm 2 mps 705 mmHg 56%
    20:00 +29°C° 0 mm 2 mps 705 mmHg 59%
    21:00 +27°C° 0 mm 2 mps 705 mmHg 62%
    22:00 +27°C° 0 mm 2 mps 705 mmHg 63%
    23:00 +26°C° 0 mm 3 mps 705 mmHg 64%

    15 December, Saturday

    Time Temperature Precipitation Wind Pressure Humidity
    00:00 +26°C° 0 mm 3 mps 706 mmHg 65%
    01:00 +25°C° 0 mm 3 mps 705 mmHg 68%
    02:00 +24°C° 0 mm 3 mps 705 mmHg 70%
    03:00 +24°C° 0 mm 3 mps 705 mmHg 73%
    04:00 +24°C° 0 mm 3 mps 705 mmHg 75%
    05:00 +22°C° 0 mm 3 mps 706 mmHg 77%
    06:00 +22°C° 0 mm 3 mps 706 mmHg 79%
    07:00 +25°C° 0 mm 3 mps 707 mmHg 72%
    08:00 +28°C° 0 mm 4 mps 707 mmHg 65%
    09:00 +30°C° 0 mm 4 mps 708 mmHg 58%
    10:00 +32°C° 0 mm 4 mps 708 mmHg 54%
    11:00 +34°C° 0 mm 4 mps 708 mmHg 50%
    12:00 +35°C° 0 mm 4 mps 708 mmHg 46%
    13:00 +35°C° 0.2 mm 3 mps 707 mmHg 46%
    14:00 +34°C° 0.2 mm 3 mps 707 mmHg 47%
    15:00 +34°C° 0.2 mm 3 mps 707 mmHg 48%
    16:00 +31°C° 0.4 mm 3 mps 707 mmHg 56%
    17:00 +30°C° 0.4 mm 3 mps 707 mmHg 64%
    18:00 +28°C° 0.4 mm 3 mps 706 mmHg 72%
    19:00 +27°C° 0.2 mm 3 mps 707 mmHg 74%
    20:00 +26°C° 0.2 mm 3 mps 707 mmHg 77%
    21:00 +25°C° 0.2 mm 3 mps 707 mmHg 80%
    22:00 +25°C° 0 mm 3 mps 707 mmHg 81%
    23:00 +24°C° 0 mm 3 mps 707 mmHg 82%
    Show more